Simultaneous Nadir Overpasses (SNOs) Predictions

Prediction of SNOs near equator between AQUA and NPP Satellite Orbit:

Table of predicted SNOs near equator for the next 14.0 days since TLE Epoch: 11/24/2014
Index Date (AQUA) Time (AQUA) AQUA Lat,Lon Date (NPP) Time (NPP) NPP Lat,Lon Distance(km) Time Diff (sec)
1 11/24/2014 05:31:28 -29.98, -63.70 11/24/2014 05:25:35 -30.08, -63.14 55.25 353
2 11/24/2014 06:20:58 29.96, 103.93 11/24/2014 06:16:22 29.99, 104.18 24.86 276
3 11/24/2014 07:09:03 -25.30, -87.24 11/24/2014 07:05:43 -25.30, -87.24 0.65 200
4 11/24/2014 07:50:04 -5.47, 87.19 11/24/2014 07:47:48 -5.47, 87.18 0.78 136
5 11/24/2014 08:33:47 25.93,-100.52 11/24/2014 08:32:40 25.94,-100.63 11.04 67
6 11/24/2014 09:22:11 -29.92, 68.11 11/24/2014 09:22:19 -30.01, 67.75 36.43 8
7 11/24/2014 10:11:34 29.91,-124.23 11/24/2014 10:13:00 30.03,-124.92 67.17 86
8 11/24/2014 11:01:04 -29.93, 43.39 11/24/2014 11:03:47 -30.12, 42.41 97.65 163
9 11/26/2014 20:58:32 29.96,-115.46 11/26/2014 20:51:48 30.14,-114.72 74.06 404
10 11/26/2014 21:47:55 -29.98, 52.19 11/26/2014 21:42:28 -30.06, 52.63 43.29 327
11 11/26/2014 22:37:25 29.96,-140.18 11/26/2014 22:33:15 29.97,-140.05 12.84 250
12 11/26/2014 23:22:22 -13.98, 31.28 11/26/2014 23:19:23 -13.98, 31.27 0.80 179
13 11/27/2014 00:02:48 -18.92,-153.96 11/27/2014 00:00:52 -18.92,-153.95 0.81 116
14 11/27/2014 00:49:49 27.44, 15.74 11/27/2014 00:49:07 27.48, 15.53 21.25 42
15 11/27/2014 01:38:38 -29.92,-175.99 11/27/2014 01:39:12 -30.02,-176.48 48.35 34
16 11/27/2014 02:28:01 29.90, -8.34 11/27/2014 02:29:52 30.10, -9.13 79.16 111
17 11/29/2014 12:25:28 -29.97,-167.19 11/29/2014 12:17:53 -30.16,-166.26 92.29 455
18 11/29/2014 13:14:58 29.95, 0.43 11/29/2014 13:08:40 30.08, 1.06 61.80 378
19 11/29/2014 14:04:21 -29.97, 168.08 11/29/2014 13:59:21 -30.06, 168.39 31.16 300
20 11/29/2014 14:53:51 29.96, -24.29 11/29/2014 14:50:08 29.97, -24.29 1.68 223
21 11/29/2014 15:35:13 -0.99, 149.98 11/29/2014 15:32:35 -0.99, 149.97 0.50 158
22 11/29/2014 16:17:42 -24.46, -36.75 11/29/2014 16:16:10 -24.49, -36.81 6.14 92
23 11/29/2014 17:05:49 29.00, 132.04 11/29/2014 17:05:33 29.06, 131.72 31.45 16
24 11/29/2014 17:55:04 -29.93, -60.10 11/29/2014 17:56:05 -30.03, -60.72 60.66 61
25 11/29/2014 18:44:27 29.90, 107.55 11/29/2014 18:46:45 30.10, 106.63 91.34 138
26 12/02/2014 04:41:52 -29.95, -51.29 12/02/2014 04:34:44 -30.11, -50.48 79.84 428
27 12/02/2014 05:31:22 29.94, 116.34 12/02/2014 05:25:31 30.02, 116.84 49.36 351
28 12/02/2014 06:20:45 -29.96, -76.01 12/02/2014 06:16:12 -30.00, -75.83 18.57 273
29 12/02/2014 07:07:00 18.20, 94.47 12/02/2014 07:03:39 18.20, 94.48 1.21 201
30 12/02/2014 07:48:10 11.53, -91.44 12/02/2014 07:45:54 11.53, -91.45 1.17 136
31 12/02/2014 08:33:39 -26.10, 79.55 12/02/2014 08:32:34 -26.12, 79.38 16.98 65
32 12/02/2014 09:21:58 29.91,-111.83 12/02/2014 09:22:09 29.99,-112.26 42.63 11
33 12/02/2014 10:11:28 -29.94, 55.80 12/02/2014 10:12:56 -30.08, 55.06 73.12 88
34 12/04/2014 20:08:54 29.98,-103.05 12/04/2014 20:00:57 30.20,-102.07 97.62 477
35 12/04/2014 20:58:17 -29.99, 64.60 12/04/2014 20:51:37 -30.12, 65.28 66.96 400
36 12/04/2014 21:47:47 29.99,-127.77 12/04/2014 21:42:24 30.03,-127.40 36.52 323
37 12/04/2014 22:37:10 -30.00, 39.88 12/04/2014 22:33:05 -30.01, 39.94 5.67 245
38 12/04/2014 23:20:05 6.16,-146.98 12/04/2014 23:17:07 6.16,-146.98 0.07 178
39 12/05/2014 00:01:21 23.19, 27.12 12/04/2014 23:59:28 23.20, 27.10 2.00 113
40 12/05/2014 00:49:37 -27.68,-164.16 12/05/2014 00:48:59 -27.75,-164.43 28.05 38
41 12/05/2014 01:38:22 29.93, 4.08 12/05/2014 01:39:01 30.04, 3.52 55.44 39
42 12/05/2014 02:27:53 -29.89, 171.69 12/05/2014 02:29:49 -30.07, 170.83 86.05 116
43 12/07/2014 12:25:17 29.96, 12.86 12/07/2014 12:17:49 30.16, 13.71 84.60 448
44 12/07/2014 13:14:40 -29.96,-179.49 12/07/2014 13:08:29 -30.08,-178.94 53.87 371
45 12/07/2014 14:04:10 29.96, -11.86 12/07/2014 13:59:16 29.99, -11.62 23.35 294
46 12/07/2014 14:51:45 -23.48, 157.41 12/07/2014 14:48:06 -23.48, 157.41 0.03 219
47 12/07/2014 15:32:42 -7.52, -28.16 12/07/2014 15:30:07 -7.52, -28.16 0.19 155
48 12/07/2014 16:17:17 24.84, 143.42 12/07/2014 16:15:52 24.88, 143.29 13.88 85
49 12/07/2014 17:05:32 -29.38, -47.81 12/07/2014 17:05:22 -29.48, -48.20 38.81 10
50 12/07/2014 17:54:46 29.89, 119.98 12/07/2014 17:55:54 30.02, 119.28 68.68 68
51 12/07/2014 18:44:16 -29.91, -72.39 12/07/2014 18:46:41 -30.11, -73.40 99.16 145




NCC Satellite Simultaneous Nadir Overpasses (SNOs) Prediction Service
